Location: Miles
(41.4492°N, 81.6087°W)
Time: 14:28:10
(UTC+00:00)

Courier 1B - Pass Details

Date: 17 September 2024
Orbit: 962 x 1208 km, 28.3° (Epoch: 06 October)

Event Time Altitude Azimuth Distance (km) Brightness Sun altitude
Rises 18:31:59 0° 227° (SW) 3,786 11.2 47.3°
Reaches altitude 10° 18:35:15 10° 213° (SSW) 2,877 11.0 47.0°
Maximum altitude 18:40:30 23° 164° (SSE) 2,161 10.2 46.5°
Drops below altitude 10° 18:46:00 10° 116° (ESE) 3,019 10.1 46.0°
Sets 18:49:31 0° 103° (ESE) 4,021 10.6 45.6°
